User: anonymous
Location: Strohbehn Observatory
(42.4649°N, 93.8239°W)
Time: 10:33:09
(UTC-05:00)
Language:

SL-16 R/B - Orbit

View from above orbital plane
View from above orbital plane
View from above satellite
View from above satellite

Ground track
Ground track

The orbit data is extracted from the following two-line orbital elements,

1 31793U 07029B   14211.21316429  .00000287  00000-0  17524-3 0   291
2 31793 070.9757 080.7778 0002295 277.8721 221.2942 14.14272658365836
Epoch (UTC): 30 July 2014 05:06:57
Eccentricity: 0.0002295
inclination: 70.9757°
perigee height: 843 km
apogee height: 846 km
right ascension of ascending node: 80.7778°
argument of perigee: 277.8721°
revolutions per day: 14.14272658
mean anomaly at epoch: 221.2942°
orbit number at epoch: 36583

The dashed part of the orbit path shows where the satellite is in the earth's shadow,  

DLR